Hourly Weather Ravan

Today, 23 April, Friday

Time Temperature Precipitation Wind Pressure Humidity
00:00 -26°C° 0 mm 4 mps 422 mmHg 19%
01:00 -26°C° 0 mm 4 mps 422 mmHg 18%
02:00 -26°C° 0 mm 4 mps 422 mmHg 17%
03:00 -26°C° 0 mm 4 mps 422 mmHg 17%
04:00 -25°C° 0 mm 3 mps 422 mmHg 17%
05:00 -27°C° 0 mm 4 mps 422 mmHg 15%
06:00 -23°C° 0 mm 3 mps 423 mmHg 24%
07:00 -18°C° 0 mm 2 mps 425 mmHg 33%
08:00 -15°C° 0 mm 2 mps 426 mmHg 43%
09:00 -12°C° 0 mm 1 mps 427 mmHg 46%
10:00 -11°C° 0 mm 1 mps 428 mmHg 49%
11:00 -10°C° 0 mm 0 mps 428 mmHg 53%
12:00 -10°C° 0 mm 1 mps 428 mmHg 56%
13:00 -10°C° 0 mm 1 mps 428 mmHg 58%
14:00 -10°C° 0 mm 1 mps 429 mmHg 61%
15:00 -10°C° 0 mm 1 mps 428 mmHg 63%
16:00 -10°C° 0 mm 1 mps 428 mmHg 66%
17:00 -10°C° 0 mm 1 mps 428 mmHg 68%
18:00 -15°C° 0 mm 2 mps 427 mmHg 58%
19:00 -17°C° 0 mm 2 mps 426 mmHg 47%
20:00 -21°C° 0 mm 3 mps 424 mmHg 37%
21:00 -21°C° 0 mm 3 mps 424 mmHg 32%
22:00 -21°C° 0 mm 3 mps 424 mmHg 27%
23:00 -22°C° 0 mm 3 mps 424 mmHg 22%

Tomorrow, 24 April, Saturday

Time Temperature Precipitation Wind Pressure Humidity
00:00 -21°C° 0 mm 3 mps 424 mmHg 23%
01:00 -21°C° 0 mm 3 mps 424 mmHg 23%
02:00 -21°C° 0 mm 3 mps 423 mmHg 24%
03:00 -21°C° 0 mm 3 mps 423 mmHg 24%
04:00 -21°C° 0 mm 3 mps 423 mmHg 25%
05:00 -21°C° 0 mm 3 mps 423 mmHg 26%
06:00 -18°C° 0 mm 3 mps 425 mmHg 32%
07:00 -14°C° 0 mm 2 mps 427 mmHg 38%
08:00 -12°C° 0 mm 2 mps 428 mmHg 45%
09:00 -10°C° 0 mm 2 mps 429 mmHg 54%
10:00 -8°C° 0 mm 1 mps 429 mmHg 64%
11:00 -7°C° 0 mm 1 mps 430 mmHg 74%
12:00 -7°C° 0 mm 1 mps 430 mmHg 75%
13:00 -7°C° 0 mm 1 mps 430 mmHg 76%
14:00 -7°C° 0 mm 1 mps 430 mmHg 77%
15:00 -7°C° 0 mm 1 mps 430 mmHg 75%
16:00 -7°C° 0 mm 1 mps 430 mmHg 73%
17:00 -8°C° 0 mm 1 mps 430 mmHg 70%
18:00 -9°C° 0 mm 1 mps 430 mmHg 66%
19:00 -10°C° 0 mm 1 mps 429 mmHg 62%
20:00 -11°C° 0 mm 1 mps 429 mmHg 57%
21:00 -13°C° 0 mm 2 mps 429 mmHg 52%
22:00 -13°C° 0 mm 2 mps 429 mmHg 48%
23:00 -13°C° 0 mm 2 mps 429 mmHg 43%

Day after tomorrow, 25 April, Sunday

Time Temperature Precipitation Wind Pressure Humidity
00:00 -15°C° 0 mm 3 mps 428 mmHg 39%
01:00 -16°C° 0 mm 3 mps 427 mmHg 35%
02:00 -17°C° 0 mm 3 mps 426 mmHg 32%
03:00 -17°C° 0 mm 3 mps 426 mmHg 32%
04:00 -17°C° 0 mm 3 mps 426 mmHg 33%
05:00 -17°C° 0 mm 3 mps 426 mmHg 33%
06:00 -14°C° 0 mm 2 mps 428 mmHg 38%
07:00 -12°C° 0 mm 2 mps 429 mmHg 43%
08:00 -8°C° 0 mm 1 mps 431 mmHg 48%
09:00 -7°C° 0 mm 1 mps 431 mmHg 55%
10:00 -6°C° 0 mm 1 mps 432 mmHg 63%
11:00 -4°C° 0 mm 1 mps 432 mmHg 70%
12:00 -5°C° 0 mm 0 mps 433 mmHg 69%
13:00 -4°C° 0 mm 0 mps 433 mmHg 67%
14:00 -4°C° 0 mm 0 mps 433 mmHg 65%
15:00 -4°C° 0 mm 0 mps 433 mmHg 65%
16:00 -4°C° 0 mm 0 mps 433 mmHg 65%
17:00 -3°C° 0 mm 1 mps 433 mmHg 65%
18:00 -6°C° 0 mm 1 mps 432 mmHg 64%
19:00 -9°C° 0 mm 2 mps 431 mmHg 63%
20:00 -10°C° 0 mm 2 mps 430 mmHg 63%
21:00 -10°C° 0 mm 2 mps 430 mmHg 59%
22:00 -12°C° 0 mm 2 mps 430 mmHg 55%
23:00 -12°C° 0 mm 2 mps 429 mmHg 51%

26 April, Monday

Time Temperature Precipitation Wind Pressure Humidity
00:00 -12°C° 0 mm 2 mps 429 mmHg 49%
01:00 -12°C° 0 mm 2 mps 429 mmHg 46%
02:00 -12°C° 0 mm 2 mps 429 mmHg 44%
03:00 -12°C° 0 mm 2 mps 429 mmHg 43%
04:00 -12°C° 0 mm 2 mps 428 mmHg 43%
05:00 -12°C° 0 mm 2 mps 428 mmHg 42%
06:00 -10°C° 0 mm 2 mps 429 mmHg 43%
07:00 -8°C° 0 mm 2 mps 430 mmHg 44%
08:00 -6°C° 0 mm 1 mps 432 mmHg 45%
09:00 -4°C° 0 mm 1 mps 432 mmHg 48%
10:00 -3°C° 0 mm 1 mps 433 mmHg 51%
11:00 -2°C° 0 mm 1 mps 433 mmHg 53%
12:00 -2°C° 0 mm 1 mps 433 mmHg 53%
13:00 -2°C° 0 mm 1 mps 433 mmHg 52%
14:00 -1°C° 0 mm 1 mps 434 mmHg 51%
15:00 -1°C° 0 mm 1 mps 433 mmHg 51%
16:00 -1°C° 0 mm 1 mps 433 mmHg 52%
17:00 -2°C° 0 mm 1 mps 433 mmHg 52%
18:00 -3°C° 0 mm 1 mps 432 mmHg 54%
19:00 -4°C° 0 mm 1 mps 432 mmHg 55%
20:00 -6°C° 0 mm 1 mps 431 mmHg 56%
21:00 -7°C° 0 mm 2 mps 431 mmHg 52%
22:00 -8°C° 0 mm 2 mps 430 mmHg 48%
23:00 -8°C° 0 mm 2 mps 430 mmHg 44%

27 April, Tuesday

Time Temperature Precipitation Wind Pressure Humidity
00:00 -8°C° 0 mm 2 mps 430 mmHg 43%
01:00 -9°C° 0 mm 3 mps 430 mmHg 42%
02:00 -10°C° 0 mm 3 mps 429 mmHg 42%
03:00 -10°C° 0 mm 3 mps 429 mmHg 42%
04:00 -10°C° 0 mm 3 mps 429 mmHg 42%
05:00 -10°C° 0 mm 3 mps 429 mmHg 42%
06:00 -7°C° 0 mm 2 mps 430 mmHg 42%
07:00 -6°C° 0 mm 2 mps 431 mmHg 41%
08:00 -5°C° 0 mm 2 mps 432 mmHg 41%
09:00 -4°C° 0 mm 2 mps 433 mmHg 41%
10:00 -3°C° 0 mm 2 mps 434 mmHg 42%
11:00 -2°C° 0 mm 2 mps 434 mmHg 42%
12:00 -1°C° 0 mm 2 mps 435 mmHg 40%
13:00 -1°C° 0 mm 2 mps 435 mmHg 37%
14:00 +1°C° 0 mm 2 mps 435 mmHg 35%
15:00 +1°C° 0 mm 2 mps 435 mmHg 35%
16:00 -1°C° 0 mm 2 mps 435 mmHg 36%
17:00 -1°C° 0 mm 2 mps 435 mmHg 36%
18:00 -2°C° 0 mm 2 mps 434 mmHg 40%
19:00 -3°C° 0 mm 2 mps 433 mmHg 44%
20:00 -5°C° 0 mm 2 mps 432 mmHg 48%
21:00 -5°C° 0 mm 2 mps 432 mmHg 48%
22:00 -5°C° 0 mm 2 mps 432 mmHg 47%
23:00 -6°C° 0 mm 2 mps 432 mmHg 47%

28 April, Wednesday

Time Temperature Precipitation Wind Pressure Humidity
00:00 -7°C° 0 mm 3 mps 431 mmHg 47%
01:00 -7°C° 0 mm 3 mps 431 mmHg 48%
02:00 -7°C° 0 mm 3 mps 431 mmHg 49%
03:00 -8°C° 0 mm 3 mps 431 mmHg 49%
04:00 -8°C° 0 mm 3 mps 430 mmHg 50%
05:00 -8°C° 0 mm 3 mps 430 mmHg 51%
06:00 -6°C° 0 mm 2 mps 431 mmHg 49%
07:00 -5°C° 0 mm 2 mps 432 mmHg 46%
08:00 -3°C° 0 mm 2 mps 433 mmHg 44%
09:00 -3°C° 0 mm 2 mps 434 mmHg 42%
10:00 -2°C° 0 mm 2 mps 435 mmHg 41%
11:00 -1°C° 0 mm 2 mps 435 mmHg 39%
12:00 0°C° 0 mm 3 mps 435 mmHg 38%
13:00 0°C° 0 mm 3 mps 436 mmHg 38%
14:00 +1°C° 0 mm 3 mps 436 mmHg 37%
15:00 +1°C° 0.1 mm 2 mps 435 mmHg 39%
16:00 +1°C° 0.1 mm 2 mps 435 mmHg 40%
17:00 -1°C° 0.1 mm 2 mps 435 mmHg 42%
18:00 -2°C° 0.1 mm 2 mps 434 mmHg 49%
19:00 -3°C° 0.1 mm 2 mps 433 mmHg 56%
20:00 -5°C° 0.1 mm 2 mps 433 mmHg 63%
21:00 -5°C° 0 mm 2 mps 432 mmHg 62%
22:00 -5°C° 0 mm 2 mps 432 mmHg 61%
23:00 -5°C° 0 mm 2 mps 432 mmHg 59%
Show more